TimeEST,TemperatureF,Dew PointF,Humidity,Sea Level PressureIn,VisibilityMPH,Wind Direction,Wind SpeedMPH,Gust SpeedMPH,PrecipitationIn,Events,Conditions,WindDirDegrees,DateUTC
12:15 AM,-9999,-9999,N/A,29.85,1.8,Calm,Calm,-,N/A,,Overcast,0,2014-01-06 05:15:00
12:35 AM,33.8,30.2,87,29.84,1.2,NNE,3.5,-,0.01,,Overcast,30,2014-01-06 05:35:00
12:55 AM,-9999,-9999,N/A,29.81,1.5,Calm,Calm,-,0.01,,Overcast,0,2014-01-06 05:55:00
1:15 AM,-9999,-9999,N/A,29.80,1.8,Calm,Calm,-,N/A,,Overcast,0,2014-01-06 06:15:00
1:35 AM,-9999,-9999,N/A,29.78,2.5,WNW,3.5,-,N/A,,Overcast,290,2014-01-06 06:35:00
1:55 AM,-9999,-9999,N/A,29.77,7.0,Calm,Calm,-,N/A,,Overcast,0,2014-01-06 06:55:00
2:15 AM,-9999,-9999,N/A,29.75,10.0,Calm,Calm,-,N/A,,Overcast,0,2014-01-06 07:15:00
2:35 AM,-9999,-9999,N/A,29.71,10.0,Calm,Calm,-,N/A,,Overcast,0,2014-01-06 07:35:00
2:55 AM,-9999,-9999,N/A,29.70,4.0,WNW,3.5,-,0.01,,Overcast,290,2014-01-06 07:55:00
3:15 AM,-9999,-9999,N/A,29.68,4.0,Calm,Calm,-,0.04,,Overcast,0,2014-01-06 08:15:00
3:35 AM,-9999,-9999,N/A,29.64,3.0,Calm,Calm,-,0.08,,Overcast,0,2014-01-06 08:35:00
3:55 AM,-9999,-9999,N/A,29.63,7.0,WSW,4.6,-,0.12,,Overcast,250,2014-01-06 08:55:00
4:15 AM,-9999,-9999,N/A,29.60,9.0,WSW,6.9,-,0.04,,Overcast,240,2014-01-06 09:15:00
4:35 AM,-9999,-9999,N/A,29.59,6.0,SW,8.1,-,0.06,,Overcast,220,2014-01-06 09:35:00
4:55 AM,-9999,-9999,N/A,29.58,5.0,SSW,4.6,-,0.07,,Overcast,200,2014-01-06 09:55:00
5:15 AM,-9999,-9999,N/A,29.56,1.0,Calm,Calm,-,N/A,,Overcast,0,2014-01-06 10:15:00
5:35 AM,-9999,-9999,N/A,29.53,0.5,Calm,Calm,-,N/A,,Overcast,0,2014-01-06 10:35:00
5:55 AM,41.0,37.4,87,29.54,0.5,Calm,Calm,-,N/A,,Overcast,0,2014-01-06 10:55:00
6:15 AM,-9999,-9999,N/A,29.52,0.8,Calm,Calm,-,0.01,,Overcast,0,2014-01-06 11:15:00
6:35 AM,39.2,37.4,93,29.51,0.5,ENE,3.5,-,0.02,,Overcast,60,2014-01-06 11:35:00
6:55 AM,42.8,37.4,81,29.49,0.5,Calm,Calm,-,0.02,,Overcast,0,2014-01-06 11:55:00
7:15 AM,37.4,35.6,93,29.47,0.2,Calm,Calm,-,N/A,,Overcast,0,2014-01-06 12:15:00
7:35 AM,37.4,35.6,93,29.45,0.2,Calm,Calm,-,0.02,,Overcast,0,2014-01-06 12:35:00
7:55 AM,39.2,35.6,87,29.43,0.2,Calm,Calm,-,0.04,,Overcast,0,2014-01-06 12:55:00
8:15 AM,39.2,35.6,87,29.40,0.2,Calm,Calm,-,0.03,,Overcast,0,2014-01-06 13:15:00
8:35 AM,39.2,35.6,87,29.38,0.2,Calm,Calm,-,0.06,,Overcast,0,2014-01-06 13:35:00
8:55 AM,41.0,39.2,93,29.36,0.2,Calm,Calm,-,0.08,Thunderstorm,Thunderstorm,0,2014-01-06 13:55:00
9:15 AM,53.6,51.8,94,29.34,4.0,South,15.0,23.0,0.03,,Overcast,180,2014-01-06 14:15:00
9:35 AM,55.4,51.8,88,29.34,10.0,South,15.0,24.2,0.06,,Overcast,190,2014-01-06 14:35:00
9:55 AM,53.6,50.0,88,29.33,10.0,South,16.1,23.0,0.08,,Overcast,180,2014-01-06 14:55:00
10:15 AM,53.6,51.8,94,29.32,10.0,South,16.1,27.6,0.01,,Overcast,190,2014-01-06 15:15:00
10:35 AM,53.6,51.8,94,29.31,9.0,South,12.7,-,0.03,,Overcast,180,2014-01-06 15:35:00
10:55 AM,53.6,50.0,88,29.30,7.0,SSW,12.7,18.4,0.04,,Overcast,200,2014-01-06 15:55:00
11:15 AM,46.4,42.8,87,29.36,5.0,West,6.9,19.6,0.02,,Mostly Cloudy,280,2014-01-06 16:15:00
11:35 AM,44.6,39.2,81,29.37,10.0,South,3.5,-,0.04,,Mostly Cloudy,180,2014-01-06 16:35:00
11:55 AM,44.6,39.2,81,29.36,5.0,South,3.5,-,0.06,,Mostly Cloudy,170,2014-01-06 16:55:00
12:15 PM,42.8,37.4,81,29.34,0.8,Calm,Calm,-,0.02,,Overcast,0,2014-01-06 17:15:00
12:35 PM,39.2,35.6,87,29.32,0.2,Calm,Calm,-,0.04,,Overcast,0,2014-01-06 17:35:00
12:55 PM,41.0,37.4,87,29.30,0.2,Calm,Calm,-,0.06,,Overcast,0,2014-01-06 17:55:00
1:15 PM,42.8,39.2,87,29.30,0.2,Calm,Calm,-,0.01,,Overcast,0,2014-01-06 18:15:00
1:35 PM,41.0,37.4,87,29.32,0.2,NNW,4.6,-,0.02,,Overcast,340,2014-01-06 18:35:00
1:55 PM,42.8,37.4,81,29.35,10.0,WSW,6.9,-,0.03,,Overcast,250,2014-01-06 18:55:00
2:15 PM,39.2,33.8,81,29.38,10.0,WSW,6.9,-,0.02,,Overcast,250,2014-01-06 19:15:00
2:35 PM,37.4,33.8,87,29.40,10.0,SW,8.1,-,0.03,,Overcast,220,2014-01-06 19:35:00
2:55 PM,35.6,30.2,81,29.40,10.0,SW,5.8,-,0.04,,Overcast,230,2014-01-06 19:55:00
3:15 PM,35.6,28.4,75,29.40,5.0,SSW,6.9,-,0.01,,Overcast,210,2014-01-06 20:15:00
3:35 PM,33.8,28.4,81,29.40,10.0,SSW,6.9,-,0.02,,Overcast,210,2014-01-06 20:35:00
3:55 PM,33.8,28.4,81,29.39,10.0,West,3.5,-,0.03,,Overcast,260,2014-01-06 20:55:00
4:15 PM,-9999,-9999,N/A,29.39,10.0,WNW,8.1,-,0.01,,Overcast,290,2014-01-06 21:15:00
4:35 PM,-9999,-9999,N/A,29.40,10.0,West,12.7,16.1,0.01,,Overcast,270,2014-01-06 21:35:00
4:55 PM,32.0,24.8,75,29.42,10.0,West,8.1,17.3,0.02,,Overcast,260,2014-01-06 21:55:00
5:15 PM,32.0,21.2,64,29.42,10.0,West,8.1,-,N/A,,Overcast,270,2014-01-06 22:15:00
5:35 PM,32.0,21.2,64,29.42,10.0,WNW,9.2,17.3,N/A,,Mostly Cloudy,290,2014-01-06 22:35:00
5:55 PM,30.2,21.2,69,29.42,10.0,Calm,Calm,-,N/A,,Mostly Cloudy,0,2014-01-06 22:55:00
6:15 PM,30.2,19.4,64,29.43,10.0,West,6.9,-,N/A,,Mostly Cloudy,270,2014-01-06 23:15:00
6:35 PM,30.2,19.4,64,29.44,10.0,NW,4.6,-,N/A,,Overcast,310,2014-01-06 23:35:00
6:55 PM,30.2,17.6,60,29.44,10.0,West,5.8,18.4,N/A,,Overcast,280,2014-01-06 23:55:00
7:15 PM,30.2,17.6,60,29.45,10.0,West,9.2,-,N/A,,Overcast,270,2014-01-07 00:15:00
7:35 PM,30.2,15.8,55,29.46,10.0,West,4.6,-,N/A,,Overcast,280,2014-01-07 00:35:00
7:55 PM,28.4,14.0,55,29.45,10.0,WSW,9.2,-,N/A,,Mostly Cloudy,250,2014-01-07 00:55:00
8:15 PM,28.4,12.2,51,29.46,10.0,West,11.5,-,N/A,,Clear,270,2014-01-07 01:15:00
8:35 PM,-9999,-9999,N/A,29.46,10.0,WNW,10.4,16.1,N/A,,Scattered Clouds,290,2014-01-07 01:35:00
8:55 PM,28.4,12.2,51,29.48,10.0,WNW,6.9,-,N/A,,Overcast,300,2014-01-07 01:55:00
9:15 PM,28.4,12.2,51,29.48,10.0,WSW,8.1,-,N/A,,Overcast,250,2014-01-07 02:15:00
9:35 PM,28.4,12.2,51,29.48,10.0,West,9.2,-,N/A,,Mostly Cloudy,280,2014-01-07 02:35:00
9:55 PM,26.6,12.2,55,29.49,10.0,West,8.1,-,N/A,,Mostly Cloudy,260,2014-01-07 02:55:00
10:15 PM,26.6,10.4,51,29.49,10.0,WSW,9.2,-,N/A,,Scattered Clouds,250,2014-01-07 03:15:00
10:35 PM,26.6,10.4,51,29.49,10.0,WSW,4.6,-,N/A,,Scattered Clouds,240,2014-01-07 03:35:00
10:55 PM,24.8,10.4,54,29.49,10.0,West,5.8,-,N/A,,Partly Cloudy,280,2014-01-07 03:55:00
11:15 PM,24.8,8.6,50,29.50,10.0,West,5.8,-,N/A,,Partly Cloudy,280,2014-01-07 04:15:00
11:35 PM,24.8,10.4,54,29.49,10.0,WSW,3.5,-,N/A,,Mostly Cloudy,250,2014-01-07 04:35:00
11:55 PM,24.8,10.4,54,29.50,10.0,WSW,4.6,-,N/A,,Overcast,250,2014-01-07 04:55:00